Time,TemperatureF,DewpointF,PressureIn,WindDirection,WindDirectionDegrees,WindSpeedMPH,WindSpeedGustMPH,Humidity,HourlyPrecipIn,Conditions,Clouds,dailyrainin,SoftwareType,DateUTC
2013-05-25 00:00:00,48.8,26.7,29.71,ESE,123,2.0,6.0,42,0.00,CLR,,0.00,WeatherDisplay:10.37,2013-05-25 06:00:00,
2013-05-25 00:30:00,48.0,25.9,29.71,SE,133,2.0,6.0,42,0.00,CLR,,0.00,WeatherDisplay:10.37,2013-05-25 06:30:00,
2013-05-25 01:00:00,46.5,26.3,29.71,ESE,120,3.0,7.0,45,0.00,CLR,,0.00,WeatherDisplay:10.37,2013-05-25 07:00:00,
2013-05-25 01:30:00,46.8,24.9,29.72,ESE,120,3.0,10.0,42,0.00,CLR,,0.00,WeatherDisplay:10.37,2013-05-25 07:30:00,
2013-05-25 02:00:00,46.8,24.9,29.71,ESE,112,3.0,12.0,42,0.00,CLR,,0.00,WeatherDisplay:10.37,2013-05-25 08:00:00,
2013-05-25 02:30:00,46.7,25.4,29.71,ESE,108,5.0,12.0,43,0.00,CLR,,0.00,WeatherDisplay:10.37,2013-05-25 08:30:00,
2013-05-25 03:00:00,45.8,25.1,29.71,ESE,116,3.0,9.0,44,0.00,CLR,,0.00,WeatherDisplay:10.37,2013-05-25 09:00:00,
2013-05-25 03:30:00,46.1,25.4,29.72,ESE,118,5.0,10.0,44,0.00,CLR,,0.00,WeatherDisplay:10.37,2013-05-25 09:30:00,
2013-05-25 04:00:00,47.0,25.1,29.73,ESE,112,5.0,10.0,42,0.00,CLR,,0.00,WeatherDisplay:10.37,2013-05-25 10:00:00,
2013-05-25 04:30:00,46.5,24.6,29.73,ESE,113,6.0,13.0,42,0.00,CLR,,0.00,WeatherDisplay:10.37,2013-05-25 10:30:00,
2013-05-25 05:00:00,47.3,24.7,29.74,ESE,111,6.0,17.0,41,0.00,CLR,,0.00,WeatherDisplay:10.37,2013-05-25 11:00:00,
2013-05-25 05:30:00,47.8,24.0,29.75,SE,127,7.0,14.0,39,0.00,CLR,,0.00,WeatherDisplay:10.37,2013-05-25 11:30:00,
2013-05-25 06:00:00,47.7,23.3,29.77,SE,130,1.0,10.0,38,0.00,CLR,,0.00,WeatherDisplay:10.37,2013-05-25 12:00:00,
2013-05-25 06:30:00,47.3,25.9,29.78,ESE,123,5.0,10.0,43,0.00,CLR,,0.00,WeatherDisplay:10.37,2013-05-25 12:30:00,
2013-05-25 07:00:00,48.6,28.2,29.79,ESE,119,2.0,9.0,45,0.00,CLR,,0.00,WeatherDisplay:10.37,2013-05-25 13:00:00,
2013-05-25 07:30:00,51.0,31.9,29.79,ESE,111,2.0,7.0,48,0.00,CLR,,0.00,WeatherDisplay:10.37,2013-05-25 13:30:00,
2013-05-25 08:00:00,55.0,36.2,29.78,ESE,105,0.0,6.0,49,0.00,CLR,,0.00,WeatherDisplay:10.37,2013-05-25 14:00:00,
2013-05-25 08:30:00,57.2,33.7,29.77,East,100,0.0,3.0,41,0.00,CLR,,0.00,WeatherDisplay:10.37,2013-05-25 14:30:00,
2013-05-25 09:00:00,60.6,34.2,29.78,NW,326,0.0,5.0,37,0.00,CLR,,0.00,WeatherDisplay:10.37,2013-05-25 15:00:00,
2013-05-25 09:30:00,62.8,35.4,29.77,SW,233,0.0,5.0,36,0.00,CLR,,0.00,WeatherDisplay:10.37,2013-05-25 15:30:00,
2013-05-25 10:00:00,66.8,35.2,29.77,NW,313,3.0,7.0,31,0.00,CLR,,0.00,WeatherDisplay:10.37,2013-05-25 16:00:00,
2013-05-25 10:30:00,69.0,33.6,29.78,WNW,293,1.0,12.0,27,0.00,CLR,,0.00,WeatherDisplay:10.37,2013-05-25 16:30:00,
2013-05-25 11:00:00,70.4,31.8,29.77,NW,308,1.0,12.0,24,0.00,CLR,,0.00,WeatherDisplay:10.37,2013-05-25 17:00:00,
2013-05-25 11:30:00,72.9,30.6,29.76,WNW,289,3.0,10.0,21,0.00,CLR,,0.00,WeatherDisplay:10.37,2013-05-25 17:30:00,
2013-05-25 12:00:00,76.5,32.4,29.76,SW,227,5.0,17.0,20,0.00,CLR,,0.00,WeatherDisplay:10.37,2013-05-25 18:00:00,
2013-05-25 12:30:00,77.1,30.3,29.75,West,271,5.0,13.0,18,0.00,CLR,,0.00,WeatherDisplay:10.37,2013-05-25 18:30:00,
2013-05-25 13:00:00,78.5,31.4,29.75,WSW,241,6.0,15.0,18,0.00,CLR,,0.00,WeatherDisplay:10.37,2013-05-25 19:00:00,
2013-05-25 13:30:00,78.7,32.9,29.73,WSW,250,6.0,16.0,19,0.00,CLR,,0.00,WeatherDisplay:10.37,2013-05-25 19:30:00,
2013-05-25 14:00:00,79.7,32.4,29.72,WSW,245,3.0,18.0,18,0.00,CLR,,0.00,WeatherDisplay:10.37,2013-05-25 20:00:00,
2013-05-25 14:30:00,80.9,31.9,29.71,WSW,255,1.0,32.0,17,0.00,CLR,,0.00,WeatherDisplay:10.37,2013-05-25 20:30:00,
2013-05-25 15:00:00,81.6,32.5,29.70,WSW,248,2.0,17.0,17,0.00,CLR,,0.00,WeatherDisplay:10.37,2013-05-25 21:00:00,
2013-05-25 15:30:00,81.1,32.1,29.69,WSW,250,1.0,17.0,17,0.00,CLR,,0.00,WeatherDisplay:10.37,2013-05-25 21:30:00,
2013-05-25 16:00:00,81.3,32.3,29.67,West,259,3.0,20.0,17,0.00,CLR,,0.00,WeatherDisplay:10.37,2013-05-25 22:00:00,
2013-05-25 16:30:00,82.1,31.4,29.67,WSW,246,6.0,17.0,16,0.00,CLR,,0.00,WeatherDisplay:10.37,2013-05-25 22:30:00,
2013-05-25 17:00:00,82.2,28.2,29.66,SW,215,8.0,20.0,14,0.00,CLR,,0.00,WeatherDisplay:10.37,2013-05-25 23:00:00,
2013-05-25 17:30:00,79.6,32.3,29.65,WSW,240,2.0,17.0,18,0.00,CLR,,0.00,WeatherDisplay:10.37,2013-05-25 23:30:00,
2013-05-25 18:00:00,78.7,33.0,29.64,WSW,246,2.0,13.0,19,0.00,CLR,,0.00,WeatherDisplay:10.37,2013-05-26 00:00:00,
2013-05-25 18:30:00,75.8,29.2,29.64,WSW,250,1.0,14.0,18,0.00,CLR,,0.00,WeatherDisplay:10.37,2013-05-26 00:30:00,
2013-05-25 19:00:00,74.2,30.5,29.64,SW,229,0.0,15.0,20,0.00,CLR,,0.00,WeatherDisplay:10.37,2013-05-26 01:00:00,
2013-05-25 19:30:00,73.0,28.3,29.66,SSW,203,2.0,8.0,19,0.00,CLR,,0.00,WeatherDisplay:10.37,2013-05-26 01:30:00,
2013-05-25 20:00:00,71.1,29.2,29.66,SSW,196,1.0,10.0,21,0.00,CLR,,0.00,WeatherDisplay:10.37,2013-05-26 02:00:00,
2013-05-25 20:30:00,70.4,26.2,29.67,SSW,202,3.0,10.0,19,0.00,CLR,,0.00,WeatherDisplay:10.37,2013-05-26 02:30:00,
2013-05-25 21:00:00,68.0,27.7,29.67,South,191,0.0,9.0,22,0.00,CLR,,0.00,WeatherDisplay:10.37,2013-05-26 03:00:00,
2013-05-25 21:30:00,64.1,31.2,29.68,ENE,63,0.0,9.0,29,0.00,CLR,,0.00,WeatherDisplay:10.37,2013-05-26 03:30:00,
2013-05-25 22:00:00,60.6,32.1,29.69,ESE,112,6.0,7.0,34,0.00,CLR,,0.00,WeatherDisplay:10.37,2013-05-26 04:00:00,
2013-05-25 22:30:00,59.3,31.6,29.71,SE,142,0.0,6.0,35,0.00,CLR,,0.00,WeatherDisplay:10.37,2013-05-26 04:30:00,
2013-05-25 23:00:00,55.3,29.4,29.71,ESE,113,3.0,7.0,37,0.00,CLR,,0.00,WeatherDisplay:10.37,2013-05-26 05:00:00,
2013-05-25 23:30:00,52.4,29.3,29.70,ESE,109,1.0,8.0,41,0.00,CLR,,0.00,WeatherDisplay:10.37,2013-05-26 05:30:00,